Station SBLM4 - Saginaw Bay Light #1, MI Image indicating link to RSS feed of recent meteorological observations for station SBLM4


Conditions at SBLM4 as of
(5:00 am EDT)
0900 GMT on 04/22/2024:
     

Click on the graph icon in the table below to see a time series plot of the last five days of that observation.

5-day plot - Wind Direction Wind Direction (WDIR):SSE ( 160 deg true )
5-day plot - Wind Speed Wind Speed (WSPD): 8.9 kts
5-day plot - Wind Gust Wind Gust (GST): 11.1 kts
5-day plot - Atmospheric Pressure Atmospheric Pressure (PRES):30.06 in
5-day plot - Pressure Tendency Pressure Tendency (PTDY):-0.01 in ( Falling )
5-day plot - Air Temperature Air Temperature (ATMP): 42.1 °F
5-day plot - Wind Chill Wind Chill (CHILL): 36.1 °F
5-day plot - Wind Speed at 10 Meters Wind Speed at 10 meters (WSPD10M): 9.7 kts
5-day plot - Wind Speed at 20 Meters Wind Speed at 20 meters (WSPD20M): 9.7 kts
5-day plot -  Wind Speed, Wind Gust and Atmospheric Pressure Combined plot of Wind Speed, Gust, and Air Pressure
Previous observations
TIME
(EDT)
5-day plot - Wind Direction
WDIR
 
5-day plot - Wind Speed
WSPD
kts
5-day plot - Wind Gust
GST
kts
5-day plot - Wave Height
WVHT
ft
5-day plot - Dominant Wave Period
DPD
sec
5-day plot - Average Wave Period
APD
sec
5-day plot - Mean Wave Direction
MWD
 
5-day plot - Atmospheric Pressure
PRES
in
5-day plot - Pressure Tendency
PTDY
in
5-day plot - Air Temperature
ATMP
°F
5-day plot - Water Temperature
WTMP
°F
5-day plot - Dew Point
DEWP
°F
5-day plot - Salinity
SAL
psu
5-day plot - Visibility
VIS
nmi
5-day plot - Tide (above MLLW)
TIDE
ft
2024-04-22 04:50 amSSE 8.0 9.9----30.06- 42.1-----
2024-04-22 04:40 amSSE 8.0 8.9----30.06- 41.9-----
2024-04-22 04:30 amSSE 8.0 9.9----30.06- 41.7-----
2024-04-22 04:20 amSSE 8.0 9.9----30.06- 41.7-----
2024-04-22 04:10 amSSE 8.9 11.1----30.06- 41.9-----
2024-04-22 04:00 am SE 8.0 9.9----30.05-0.02 41.7-----
2024-04-22 03:50 am SE 8.0 8.9----30.05- 41.7-----
2024-04-22 03:40 am SE 8.0 8.9----30.06- 41.7-----
2024-04-22 03:30 am SE 8.0 8.9----30.05- 41.5-----
2024-04-22 03:20 am SE 8.0 8.9----30.06- 41.5-----
2024-04-22 03:10 amSSE 8.0 8.9----30.06- 41.7-----
2024-04-22 03:00 am SE 6.0 8.0----30.06+0.01 42.1-----
2024-04-22 02:50 am SE 7.0 8.9----30.06- 42.3-----
2024-04-22 02:40 amESE 7.0 9.9----30.06- 42.3-----
2024-04-22 02:30 amESE 8.0 11.1----30.06- 42.1-----
2024-04-22 02:20 amESE 8.9 9.9----30.06- 42.4-----
2024-04-22 02:10 amESE 8.0 9.9----30.06- 42.4-----
2024-04-22 02:00 amESE 8.0 11.1----30.07+0.04 42.8-----
2024-04-22 01:50 am E 8.9 11.1----30.07- 43.0-----
2024-04-22 01:40 am E 8.9 12.0----30.07- 43.2-----
2024-04-22 01:30 am E 9.9 12.0----30.07- 43.0-----
2024-04-22 01:20 amENE 12.0 13.0----30.07- 42.8-----
2024-04-22 01:10 amENE 12.0 15.0----30.07- 43.0-----
2024-04-22 01:00 amENE 13.0 15.9----30.07+0.04 43.0-----
2024-04-22 12:50 amENE 14.0 15.9----30.06- 43.0-----
2024-04-22 12:40 amENE 14.0 15.9----30.06- 43.2-----
2024-04-22 12:30 am E 14.0 18.1----30.06- 43.2-----
2024-04-22 12:20 amENE 15.9 20.0----30.06- 43.2-----
2024-04-22 12:10 amENE 18.1 21.0----30.05- 43.2-----
2024-04-22 12:00 amENE 19.0 20.0----30.05+0.04 43.5-----
2024-04-21 11:50 pmNNW 5.1 7.0----30.05- 47.8-----
2024-04-21 11:40 pmNNW 7.0 7.0----30.05- 47.7-----
2024-04-21 11:30 pmWNW 6.0 7.0----30.04- 47.8-----
2024-04-21 11:20 pm W 6.0 8.0----30.04- 47.8-----
2024-04-21 11:10 pm W 7.0 8.9----30.04- 48.0-----
2024-04-21 11:00 pm W 8.0 8.9----30.03+0.03 48.2-----
2024-04-21 10:50 pm W 7.0 8.0----30.03- 48.4-----
2024-04-21 10:40 pm W 7.0 8.0----30.03- 48.4-----
2024-04-21 10:30 pm W 8.0 8.9----30.03- 48.4-----
2024-04-21 10:20 pm W 8.9 9.9----30.03- 49.1-----
2024-04-21 10:10 pm W 9.9 11.1----30.03- 49.1-----
2024-04-21 10:00 pm W 9.9 11.1----30.03+0.04 49.5-----
2024-04-21 09:50 pm W 8.0 9.9----30.02- 49.1-----
2024-04-21 09:40 pm W 8.9 9.9----30.02- 49.5-----
2024-04-21 09:30 pm W 9.9 9.9----30.02- 49.6-----
2024-04-21 09:20 pmWNW 9.9 13.0----30.02- 49.8-----
2024-04-21 09:10 pmWNW 12.0 13.0----30.01- 50.2-----
2024-04-21 09:00 pmWNW 9.9 12.0----30.01+0.03 49.8-----
2024-04-21 08:50 pmWNW 11.1 13.0----30.01- 50.0-----
2024-04-21 08:40 pmWNW 12.0 15.0----30.01- 50.2-----
2024-04-21 08:30 pmWNW 14.0 15.0----30.00- 50.7-----
2024-04-21 08:20 pm NW 12.0 14.0----30.00- 50.0-----
2024-04-21 08:10 pm NW 13.0 18.1----30.00- 50.5-----
2024-04-21 08:00 pm NW 15.9 18.1----30.00+0.04 50.9-----
2024-04-21 07:50 pm NW 15.9 17.1----30.00- 51.1-----
2024-04-21 07:40 pm NW 15.0 19.0----30.00- 50.7-----
2024-04-21 07:30 pm NW 15.0 17.1----29.99- 50.9-----
2024-04-21 07:20 pm NW 15.0 18.1----29.99- 51.1-----
2024-04-21 07:10 pm NW 14.0 15.9----29.99- 50.9-----
2024-04-21 07:00 pm NW 14.0 18.1----29.99+0.01 51.3-----
2024-04-21 06:50 pm NW 18.1 21.0----29.99- 51.6-----
2024-04-21 06:40 pm NW 15.9 19.0----29.98- 51.4-----
2024-04-21 06:30 pm NW 15.9 19.0----29.98- 51.3-----
2024-04-21 06:20 pm NW 13.0 18.1----29.98- 51.3-----
2024-04-21 06:10 pm NW 15.0 17.1----29.98- 52.0-----
2024-04-21 06:00 pmWNW 14.0 17.1----29.98-0.01 52.2-----
2024-04-21 05:50 pmWNW 14.0 17.1----29.97- 51.6-----
2024-04-21 05:40 pmWNW 14.0 17.1----29.97- 51.3-----
2024-04-21 05:30 pmWNW 13.0 19.0----29.96- 51.4-----
2024-04-21 05:20 pmWNW 17.1 22.0----29.96- 51.1-----
2024-04-21 05:10 pmWNW 12.0 15.0----29.96- 51.1-----
2024-04-21 05:00 pmWNW 12.0 14.0----29.96-0.04 50.7-----
2024-04-21 04:50 pm W 9.9 13.0----29.97- 50.4-----
2024-04-21 04:40 pmWNW 13.0 15.0----29.97- 50.5-----
2024-04-21 04:30 pm W 11.1 14.0----29.97- 50.2-----
2024-04-21 04:20 pm W 13.0 15.9----29.97- 50.0-----
2024-04-21 04:10 pmWNW 14.0 15.9----29.97- 49.8-----
2024-04-21 04:00 pmWNW 12.0 14.0----29.98-0.03 49.5-----
2024-04-21 03:50 pm W 14.0 19.0----29.98- 49.6-----
2024-04-21 03:40 pm W 15.9 20.0----29.98- 49.5-----
2024-04-21 03:30 pm W 15.0 17.1----29.99- 49.1-----
2024-04-21 03:20 pm W 14.0 20.0----29.99- 48.7-----
2024-04-21 03:10 pm W 15.0 17.1----29.99- 48.6-----
2024-04-21 03:00 pm W 14.0 17.1----29.99-0.04 48.2-----
2024-04-21 02:50 pmWNW 13.0 20.0----29.99- 48.2-----
2024-04-21 02:40 pmWNW 15.9 18.1----29.99- 48.2-----
2024-04-21 02:30 pmWNW 13.0 17.1----30.00- 48.0-----
2024-04-21 02:20 pm W 14.0 20.0----29.99- 48.0-----
2024-04-21 02:10 pm W 15.0 19.0----30.00- 47.7-----
2024-04-21 02:00 pm W 15.9 19.0----30.00-0.04 47.3-----
2024-04-21 01:50 pm W 11.1 18.1----30.00- 47.1-----
2024-04-21 01:40 pm W 12.0 17.1----30.00- 46.9-----
2024-04-21 01:30 pm W 15.9 18.1----30.00- 46.9-----
2024-04-21 01:20 pm W 15.0 19.0----30.01- 46.6-----
2024-04-21 01:10 pm W 17.1 19.0----30.01- 46.2-----
2024-04-21 01:00 pm W 14.0 19.0----30.01-0.03 45.9-----
2024-04-21 12:50 pmWSW 18.1 21.0----30.01- 45.7-----
2024-04-21 12:40 pm W 15.0 21.0----30.01- 45.3-----
2024-04-21 12:30 pm W 15.0 19.0----30.02- 45.0-----
2024-04-21 12:20 pm W 13.0 17.1----30.02- 44.4-----
2024-04-21 12:10 pm W 15.0 19.0----30.02- 44.2-----
2024-04-21 12:00 pm W 15.0 17.1----30.03-0.02 43.9-----
2024-04-21 11:50 am W 13.0 18.1----30.03- 43.5-----
2024-04-21 11:40 amWSW 15.9 18.1----30.04- 43.0-----
2024-04-21 11:30 am W 14.0 19.0----30.04- 42.8-----
2024-04-21 11:20 amWSW 15.9 19.0----30.04- 42.4-----
2024-04-21 11:10 amWSW 15.9 19.0----30.04- 42.1-----
2024-04-21 11:00 amWSW 15.0 18.1----30.04-0.01 41.7-----
2024-04-21 10:50 am W 13.0 18.1----30.04- 41.7-----
2024-04-21 10:40 am W 14.0 19.0----30.03- 41.2-----
2024-04-21 10:30 am W 15.9 20.0----30.04- 40.8-----
2024-04-21 10:20 am W 17.1 19.0----30.04- 40.6-----
2024-04-21 10:10 am W 15.9 19.0----30.04- 40.3-----
2024-04-21 10:00 am W 15.9 19.0----30.04+0.00 40.3-----
2024-04-21 09:50 am W 17.1 20.0----30.04- 39.7-----
2024-04-21 09:40 am W 15.0 19.0----30.04- 39.4-----
2024-04-21 09:30 am W 15.0 19.0----30.04- 39.4-----
2024-04-21 09:20 am W 15.9 19.0----30.05- 38.8-----
2024-04-21 09:10 am W 15.9 19.0----30.05- 38.7-----
2024-04-21 09:00 am W 17.1 19.0----30.05+0.00 38.7-----
2024-04-21 08:50 am W 17.1 19.0----30.05- 38.3-----
2024-04-21 08:40 am W 18.1 21.0----30.05- 38.1-----
2024-04-21 08:30 am W 18.1 20.0----30.05- 38.3-----
2024-04-21 08:20 am W 18.1 21.0----30.05- 38.1-----
2024-04-21 08:10 am W 19.0 22.9----30.05- 37.9-----
2024-04-21 08:00 am W 19.0 22.0----30.05+0.00 38.3-----
2024-04-21 07:50 am W 19.0 22.9----30.04- 38.3-----
2024-04-21 07:40 am W 20.0 22.9----30.04- 38.3-----
2024-04-21 07:30 am W 19.0 22.0----30.03- 38.1-----
2024-04-21 07:20 am W 18.1 21.0----30.04- 38.3-----
2024-04-21 07:10 am W 18.1 21.0----30.04- 38.5-----
2024-04-21 07:00 am W 17.1 21.0----30.04-0.01 38.3-----
2024-04-21 06:50 am W 18.1 20.0----30.04- 38.3-----
2024-04-21 06:40 am W 15.0 20.0----30.05- 38.7-----
2024-04-21 06:30 am W 15.9 19.0----30.05- 38.8-----
2024-04-21 06:20 am W 15.9 19.0----30.05- 38.7-----
2024-04-21 06:10 am W 17.1 18.1----30.05- 38.7-----
2024-04-21 06:00 am W 14.0 19.0----30.05+0.00 39.0-----
2024-04-21 05:50 am W 15.0 18.1----30.05- 39.0-----
2024-04-21 05:40 am W 15.0 17.1----30.05- 39.0-----
2024-04-21 05:30 am W 14.0 18.1----30.05- 39.2-----
2024-04-21 05:20 am W 15.0 17.1----30.05- 39.2-----
2024-04-21 05:10 am W 15.0 18.1----30.05- 39.2-----
2024-04-21 05:00 am W 15.0 18.1----30.05-0.01 39.2-----
2024-04-21 04:50 am W 14.0 18.1----30.05- 39.2-----